Voltar ao catálogo

FENGYUN 1C DEB

AtivoSSO
NORAD 31891·DEBRIS·🇨🇳 China

Lançado May 10, 1999 de Taiyuan Satellite Launch Center

Loading…

Próximas Passagens (próximas 24 horas)

TLE

EnvelhecendoSource: Space-Track

Época: Sep 9, 2026, 06:01 UTC

1 31891U 99025CKS 26252.25091015  .00000328  00000-0  37769-3 0  9995
2 31891  99.3957 264.5308 0223368 204.9485 154.0730 13.66449710961041

Acompanhe FENGYUN 1C DEB em tempo real com AllMySat

Download on the App Store